This demonstration page uses our WeatherBlox Daily Observations layout. Learn more.

Left ArrowRight Arrow

39.51506, -84.39828

Hourly Observations for October 2, 2018

Temp ( °F °C ) Dew Point ( °F °C ) Humidity (%) Winds ( mph kmh ) Pressure ( in mb ) Visibility ( mi km ) Precip ( " mm )
12:15 am 00:15 Clear with Mist and Fog 65 18.5 65 18.3 99 99 W 3 6 30.12 1020 5 8.0467 0 0
12:35 am 00:35 Partly Cloudy with Mist and Fog 65 18.2 64 18 99 99 SW 6 9 30.12 1020 3.5 5.63269 0 0
12:55 am 00:55 Mostly Cloudy 66 18.8 65 18.5 98 98 SSW 6 9 30.12 1020 7 11.26538 0 0
1:15 am 01:15 Clear 66 19.1 66 18.7 98 98 SSW 5 7 30.12 1020 7 11.26538 0 0
1:35 am 01:35 Partly Cloudy with Mist and Fog 66 18.9 65 18.6 98 98 SW 5 7 30.12 1020 7 11.26538 0 0
1:55 am 01:55 Cloudy with Mist and Fog 66 19.1 66 18.8 98 98 Calm 30.12 1020 7 11.26538 0 0
2:15 am 02:15 Cloudy 67 19.2 66 18.8 98 98 Calm 30.12 1020 7 11.26538 0 0
2:35 am 02:35 Cloudy 68 20.2 67 19.5 96 96 SSW 6 9 30.12 1020 10 16.0934 0 0
2:55 am 02:55 Cloudy 70 21.1 68 19.9 93 93 SSW 7 11 30.12 1020 10 16.0934 0 0
3:15 am 03:15 Cloudy 70 21.1 68 19.9 93 93 SSW 3 6 30.12 1020 10 16.0934 0 0
3:35 am 03:35 Cloudy 70 21.2 68 20.1 93 93 SSW 6 9 30.12 1020 10 16.0934 0 0
3:55 am 03:55 Cloudy 71 21.4 68 20.2 93 93 SSW 6 9 30.12 1020 10 16.0934 0 0
4:15 am 04:15 Cloudy 71 21.4 68 20.2 93 93 SSW 7 11 30.12 1020 10 16.0934 0 0
4:35 am 04:35 Mostly Cloudy 71 21.5 68 20.2 92 92 SSW 7 11 30.12 1020 10 16.0934 0 0
4:55 am 04:55 Mostly Cloudy 70 21.3 68 20.1 93 93 SSW 5 7 30.12 1020 10 16.0934 0 0
5:15 am 05:15 Cloudy 70 21.2 68 20.1 93 93 SW 6 9 30.12 1020 10 16.0934 0 0
5:35 am 05:35 Cloudy 70 21.1 68 20.1 94 94 SW 5 7 30.12 1020 10 16.0934 0 0
5:55 am 05:55 Cloudy 70 20.9 68 20 95 95 SW 5 7 30.12 1020 10 16.0934 0 0
6:15 am 06:15 Cloudy 70 20.9 68 20.1 95 95 SSW 7 11 30.12 1020 10 16.0934 0 0
6:35 am 06:35 Cloudy 70 21.1 68 20.1 94 94 SSW 7 11 30.12 1020 10 16.0934 0 0
6:55 am 06:55 Partly Cloudy 70 21 68 20 94 94 SSW 6 9 30.12 1020 10 16.0934 0 0
7:15 am 07:15 Mostly Cloudy 70 20.9 68 20 95 95 S 6 9 30.12 1020 10 16.0934 0 0
7:35 am 07:35 Cloudy 70 21 68 20 94 94 SSW 7 11 30.09 1019 10 16.0934 0 0
7:55 am 07:55 Cloudy 70 21.2 68 20.2 94 94 SSW 7 11 30.12 1020 10 16.0934 0 0
8:15 am 08:15 Cloudy 71 21.4 69 20.4 94 94 S 7 11 30.09 1019 10 16.0934 0 0
8:35 am 08:35 Cloudy 71 21.6 69 20.6 94 94 SSW 7 11 30.12 1020 10 16.0934 0 0
8:55 am 08:55 Mostly Cloudy 72 22 69 20.6 92 92 SSW 10 17 30.09 1019 10 16.0934 0 0
9:15 am 09:15 Mostly Cloudy 72 22.1 69 20.7 92 92 SW 8 13 30.09 1019 10 16.0934 0 0
9:35 am 09:35 Mostly Cloudy 72 22.3 69 20.7 91 91 SW 9 15 30.12 1020 10 16.0934 0 0
9:55 am 09:55 Mostly Cloudy 73 22.5 69 20.7 90 90 SSW 10 17 30.12 1020 10 16.0934 0 0
10:15 am 10:15 Cloudy 73 22.7 69 20.7 89 89 SW 10 17 30.12 1020 10 16.0934 0 0
10:35 am 10:35 Cloudy 74 23.1 69 20.7 86 86 SW 13 20 30.12 1020 10 16.0934 0 0
10:55 am 10:55 Cloudy 74 23.3 69 20.8 86 86 SSW 12 19 30.12 1020 10 16.0934 0 0
11:15 am 11:15 Cloudy 74 23.5 69 20.8 85 85 SSW 10 17 30.12 1020 10 16.0934 0 0
11:35 am 11:35 Partly Cloudy 77 24.8 70 21.2 80 80 SSW 13 20 30.12 1020 10 16.0934 0 0
11:55 am 11:55 Cloudy 76 24.3 70 20.9 81 81 SSW 10 17 30.12 1020 10 16.0934 0 0
12:15 pm 12:15 Cloudy 77 24.8 70 21.1 80 80 SW 9 15 30.09 1019 10 16.0934 0 0
12:35 pm 12:35 Partly Cloudy 78 25.6 71 21.4 78 78 SSW 10 17 30.09 1019 10 16.0934 0 0
12:55 pm 12:55 Partly Cloudy 78 25.3 70 21 77 77 SSW 12 19 30.09 1019 10 16.0934 0 0
1:15 pm 13:15 Partly Cloudy 78 25.7 70 20.9 75 75 SSW 10 17 30.09 1019 10 16.0934 0 0
1:35 pm 13:35 Mostly Cloudy 81 27 70 21.3 71 71 SW 15 24 30.09 1019 10 16.0934 0 0
1:55 pm 13:55 Mostly Cloudy 80 26.7 69 20.7 70 70 SW 10 17 30.06 1018 10 16.0934 0 0
2:15 pm 14:15 Mostly Cloudy 82 28 70 21.2 67 67 SW 15 24 30.06 1018 10 16.0934 0 0
2:35 pm 14:35 Partly Cloudy 82 28 68 20.2 63 63 SSW 12 19 30.06 1018 10 16.0934 0 0
2:55 pm 14:55 Mostly Cloudy 82 27.9 69 20.3 63 63 SW 14 22 30.06 1018 10 16.0934 0 0
3:15 pm 15:15 Mostly Cloudy 82 27.7 67 19.6 61 61 WSW 10 17 30.06 1018 10 16.0934 0 0
3:35 pm 15:35 Partly Cloudy 82 27.9 68 19.9 62 62 WSW 9 15 30.03 1017 10 16.0934 0 0
3:55 pm 15:55 Mostly Cloudy 83 28.3 68 20 61 61 SSW 14 22 30.03 1017 10 16.0934 0 0
4:15 pm 16:15 Mostly Cloudy 82 27.6 68 20.1 64 64 SSW 13 20 30.03 1017 10 16.0934 0 0
4:35 pm 16:35 Partly Cloudy 84 28.8 68 20.2 60 60 SW 15 24 30 1016 10 16.0934 0 0
4:55 pm 16:55 Mostly Cloudy 82 27.9 69 20.4 64 64 SW 12 19 30.03 1017 10 16.0934 0 0
5:15 pm 17:15 Cloudy 80 26.8 68 20 66 66 SW 10 17 30.03 1017 10 16.0934 0 0
5:35 pm 17:35 Mostly Cloudy 78 25.3 68 20.2 73 73 WSW 8 13 30.03 1017 10 16.0934 0 0
5:55 pm 17:55 Mostly Cloudy with Light Rain 76 24.4 70 21.2 82 82 SW 6 9 30.03 1017 10 16.0934 0 0
6:15 pm 18:15 Cloudy 77 25.1 70 21.2 79 79 Calm 30.03 1017 10 16.0934 0 0
6:35 pm 18:35 Partly Cloudy 76 24.4 71 21.5 84 84 Calm 30.03 1017 10 16.0934 0 0
6:55 pm 18:55 Mostly Cloudy 75 24 72 22 89 89 Calm 30.03 1017 10 16.0934 0 0
7:15 pm 19:15 Cloudy 75 23.9 72 22 89 89 WNW 3 6 30.03 1017 10 16.0934 0 0
7:35 pm 19:35 Cloudy 75 23.8 70 21.2 85 85 Calm 30.03 1017 10 16.0934 0 0
7:55 pm 19:55 Cloudy 75 24 70 21.1 84 84 Calm 30.03 1017 10 16.0934 0 0
8:15 pm 20:15 Mostly Cloudy 73 23 70 20.9 88 88 Calm 30.06 1018 10 16.0934 0 0
8:35 pm 20:35 Cloudy 74 23.2 70 21.1 88 88 N 5 7 30.06 1018 10 16.0934 0 0
8:55 pm 20:55 Mostly Cloudy 73 22.7 70 21.2 91 91 NE 5 7 30.06 1018 10 16.0934 0 0
9:15 pm 21:15 Mostly Cloudy 72 22.1 70 21.1 94 94 Calm 30.06 1018 10 16.0934 0 0
9:35 pm 21:35 Mostly Cloudy 71 21.5 69 20.8 96 96 N 3 6 30.06 1018 10 16.0934 0 0
9:55 pm 21:55 Mostly Cloudy 71 21.8 70 21 95 95 Calm 30.09 1019 10 16.0934 0 0
10:15 pm 22:15 Cloudy 70 21.3 69 20.7 96 96 Calm 30.09 1019 10 16.0934 0 0
10:35 pm 22:35 Mostly Cloudy 70 21.1 69 20.7 98 98 Calm 30.09 1019 7 11.26538 0 0
10:55 pm 22:55 Cloudy with Mist and Fog 70 20.9 69 20.6 98 98 Calm 30.09 1019 7 11.26538 0 0
11:15 pm 23:15 Mostly Cloudy 70 20.9 69 20.5 98 98 Calm 30.09 1019 10 16.0934 0 0
11:35 pm 23:35 Mostly Cloudy 70 20.9 69 20.4 97 97 Calm 30.09 1019 7 11.26538 0 0
11:55 pm 23:55 Partly Cloudy 69 20.7 69 20.3 98 98 Calm 30.09 1019 7 11.26538 0 0

Powered by AerisWeather